Regional Weather Roundup
Issued by NWS Kansas City/Pleasant Hill, MO

Home | Current Version | Previous Version | Text Only | Print | Product List | Glossary On
Versions: 1 2 3 4 5 6 7 8 9 10 11 12 13 14 15 16 17 18 19 20 21 22 23 24 25 26 27
000
ASUS43 KEAX 281010
RWREAX

WEATHER ROUNDUP FOR EASTERN KANSAS AND NORTHWEST MISSOURI
NATIONAL WEATHER SERVICE KANSAS CITY/PLEASANT HILL MO
500 AM CDT THU APR 28 2016

KSZ040-057-103>105-MOZ028-029-037-043-281100-
...KANSAS CITY METROPOLITAN AREA...

CITY           SKY/WX    TMP DP  RH WIND       PRES   REMARKS
K.C. INTL      CLOUDY    46  39  76 W12       29.75R
K.C. DOWNTOWN  PTCLDY    48  39  71 W8        29.76R
LEES SUMMIT    PTCLDY    47  39  74 W9        29.76R
OLATHE - IXD   CLEAR     44  38  79 W10       29.78R
OLATHE - OJC   CLEAR     44  38  79 VRB7      29.77R
LAWRENCE       CLEAR     45  38  76 W12       29.78R

$$

MOZ001>008-011>017-020>025-030>033-038>040-044>046-053-054-281100-
...NORTHERN AND CENTRAL MISSOURI...

CITY           SKY/WX    TMP DP  RH WIND       PRES   REMARKS
ST. JOSEPH     CLOUDY    48  43  82 W16       29.74R
MOSBY            N/A     48  39  71 W9        29.76R
WARRENSBURG    MOCLDY    46  39  76 SW10      29.76F
WHITEMAN AFB   PTCLDY    48  42  77 W9        29.76R
CLINTON        CLEAR     48  43  81 W7        29.79R
SEDALIA        CLEAR     52  41  66 W10G18    29.77R
WARSAW         NOT AVBL
CHILLICOTHE      N/A     50  32  50 CALM      29.74R
KIRKSVILLE     PTCLDY    50  45  83 SW8       29.73R

$$

MOZ041-047>049-056>058-063>065-088>090-097-281100-
...EASTERN AND SOUTHERN MISSOURI...

CITY           SKY/WX    TMP DP  RH WIND       PRES   REMARKS
ST. LOUIS INTL CLEAR     57  51  80 SW5       29.76S
SPIRIT OF STL  CLEAR     54  52  93 CALM      29.75S
COLUMBIA       CLEAR     51  49  92 SW8       29.76R
JEFFERSON CITY CLEAR     55  48  77 SW7       29.76R
ROLLA          CLEAR     50  48  93 SW8       29.77R
OSAGE BEACH    CLEAR     52  41  66 SW6       29.79R
SPRINGFIELD    CLEAR     52  43  71 W9        29.82R
JOPLIN         CLEAR     50  43  77 W8        29.86R
WEST PLAINS    CLEAR     50  46  86 MISG      29.82R

$$

IAZ060-094-KSZ022-034>040-054-083-096-NEZ052-066-093-281100-
...KANSAS...SOUTHEAST NEBRASKA AND IOWA...

CITY           SKY/WX    TMP DP  RH WIND       PRES   REMARKS
TOPEKA         CLOUDY    47  38  71 W14G21    29.78R
MANHATTAN      CLEAR     43  35  73 W7        29.81R
EMPORIA        CLEAR     44  37  76 W13       29.82R
CHANUTE        CLEAR     48  38  68 W9        29.86R
WICHITA        CLOUDY    49  38  65 W12       29.88R
OMAHA          DRIZZLE   46  45  96 SE3       29.70R FOG
LINCOLN        CLOUDY    49  43  80 NW16      29.76R
FALLS CITY     CLOUDY    48  44  86 W16       29.72R
LAMONI         CLOUDY    45  44  97 S8        29.69S
DES MOINES     CLOUDY    48  42  80 S5        29.70R

$$





USA.gov is the U.S. government's official web portal to all federal, state and local government web resources and services.